History for Miami, FL

Monday, December 24, 2012 — View Current Conditions

Jump to Data:

Date:
Airport Code:
Recently Viewed Airport Codes: KMIA
Daily Summary
  Actual Average Record
Temperature
Mean Temperature 68°F 69°F  
Max Temperature 78°F 77°F 86°F (1990)
Min Temperature 57°F 62°F 31°F (1989)
Degree Days
Heating Degree Days 0 1  
Month to date heating degree days 12 20  
Since 1 July heating degree days 13 23  
Cooling Degree Days 3 6  
Month to date cooling degree days 205 164  
Year to date cooling degree days 4645 4536  
Growing Degree Days 18 (Base 50)    
Moisture
Dew Point 55°F    
Average Humidity 64    
Maximum Humidity 80    
Minimum Humidity 47    
Precipitation
Precipitation 0.00 in 0.06 in 0.71 in (1971)
Month to date precipitation 0.51 1.64  
Year to date precipitation 86.94 61.50  
Snow
Snow 0.00 in in in ()
Month to date snowfall 0.0  
Since 1 July snowfall 0.0  
Snow Depth 0.00 in    
Sea Level Pressure
Sea Level Pressure 30.09 in    
Wind
Wind Speed 4 mph (SE)    
Max Wind Speed 17 mph    
Max Gust Speed 24 mph    
Visibility 10 miles    
Events      
T = Trace of Precipitation, MM = Missing Value Source: NWS Daily Summary

Show full METARS

(help) - Comma Delimited File

Hourly Observations

Time(EST) Temperature Dew Point Humidity Sea Level Pressure Visibility Wind Direction Wind Speed Gust Speed Precipitation Events Conditions
12:53 AM 63.0°F 53.1°F 70% 30.14 in 10.0 miles NNW 4.6 mph - N/A   Mostly Cloudy
1:53 AM 62.1°F 53.1°F 72% 30.14 in 10.0 miles NW 3.5 mph - N/A   Mostly Cloudy
2:53 AM 60.1°F 52.0°F 75% 30.11 in 10.0 miles Calm Calm - N/A   Clear
3:53 AM 57.9°F 51.1°F 78% 30.11 in 10.0 miles Calm Calm - N/A   Clear
4:53 AM 57.9°F 51.1°F 78% 30.09 in 10.0 miles Calm Calm - N/A   Clear
5:53 AM 59.0°F 51.1°F 75% 30.10 in 10.0 miles Calm Calm - N/A   Scattered Clouds
6:53 AM 60.1°F 52.0°F 75% 30.12 in 10.0 miles Calm Calm - N/A   Scattered Clouds
7:53 AM 61.0°F 52.0°F 72% 30.13 in 10.0 miles Calm Calm - N/A   Scattered Clouds
8:53 AM 66.0°F 53.1°F 63% 30.13 in 10.0 miles Variable 3.5 mph - N/A   Scattered Clouds
9:53 AM 73.0°F 55.0°F 53% 30.14 in 10.0 miles Calm Calm - N/A   Scattered Clouds
10:53 AM 75.0°F 57.9°F 55% 30.12 in 10.0 miles ESE 12.7 mph - 0.01 in   Scattered Clouds
11:53 AM 77.0°F 55.9°F 48% 30.12 in 10.0 miles SSE 10.4 mph 23.0 mph N/A   Scattered Clouds
12:53 PM 77.0°F 55.9°F 48% 30.08 in 10.0 miles ESE 12.7 mph 21.9 mph N/A   Mostly Cloudy
1:53 PM 77.0°F 55.9°F 48% 30.05 in 10.0 miles SSE 11.5 mph 18.4 mph N/A   Mostly Cloudy
2:53 PM 75.9°F 55.9°F 50% 30.04 in 10.0 miles SE 11.5 mph - N/A   Mostly Cloudy
3:53 PM 75.0°F 55.9°F 51% 30.05 in 10.0 miles ESE 8.1 mph - N/A   Mostly Cloudy
4:53 PM 73.9°F 57.0°F 55% 30.04 in 10.0 miles SSE 10.4 mph - N/A   Mostly Cloudy
5:53 PM 72.0°F 57.0°F 59% 30.04 in 10.0 miles SE 5.8 mph - N/A   Mostly Cloudy
6:53 PM 70.0°F 57.0°F 63% 30.05 in 10.0 miles Calm Calm - N/A   Mostly Cloudy
7:53 PM 69.1°F 57.9°F 68% 30.03 in 10.0 miles SSE 6.9 mph - N/A   Mostly Cloudy
8:53 PM 70.0°F 57.9°F 65% 30.04 in 10.0 miles Calm Calm - N/A   Mostly Cloudy
9:53 PM 68.0°F 57.9°F 70% 30.06 in 10.0 miles Calm Calm - N/A   Scattered Clouds
10:53 PM 64.9°F 57.0°F 75% 30.05 in 10.0 miles Calm Calm - N/A   Scattered Clouds
11:53 PM 64.9°F 57.9°F 78% 30.04 in 10.0 miles Calm Calm - N/A   Scattered Clouds